• In Hungary
  • List of Countries
  • For 7 days
  • Water Temperature
  • Satellite Maps
  • Weather Map
  • News
  • Weather Widgets
  • user-avatar
    Login

    Hourly Weather Zmeevka

    Today, 17 January, Wednesday

    Time Temperature Precipitation Wind Pressure Humidity
    00:00 -13°C° 0 mm 5 mps 753 mmHg 88%
    01:00 -12°C° 0 mm 5 mps 753 mmHg 88%
    02:00 -12°C° 0 mm 5 mps 752 mmHg 87%
    03:00 -12°C° 0 mm 5 mps 752 mmHg 87%
    04:00 -12°C° 0 mm 5 mps 751 mmHg 87%
    05:00 -12°C° 0 mm 5 mps 751 mmHg 86%
    06:00 -12°C° 0 mm 5 mps 750 mmHg 86%
    07:00 -12°C° 0 mm 5 mps 750 mmHg 85%
    08:00 -13°C° 0 mm 5 mps 750 mmHg 84%
    09:00 -13°C° 0 mm 5 mps 749 mmHg 84%
    10:00 -12°C° 0 mm 5 mps 749 mmHg 82%
    11:00 -12°C° 0 mm 6 mps 749 mmHg 80%
    12:00 -11°C° 0 mm 6 mps 748 mmHg 77%
    13:00 -11°C° 0 mm 6 mps 748 mmHg 75%
    14:00 -11°C° 0 mm 6 mps 747 mmHg 72%
    15:00 -11°C° 0 mm 6 mps 747 mmHg 69%
    16:00 -11°C° 0 mm 6 mps 746 mmHg 68%
    17:00 -11°C° 0 mm 6 mps 746 mmHg 67%
    18:00 -12°C° 0 mm 6 mps 746 mmHg 67%
    19:00 -13°C° 0 mm 7 mps 746 mmHg 69%
    20:00 -13°C° 0 mm 7 mps 746 mmHg 71%
    21:00 -13°C° 0 mm 7 mps 745 mmHg 74%
    22:00 -13°C° 0 mm 7 mps 745 mmHg 76%
    23:00 -13°C° 0 mm 7 mps 745 mmHg 79%

    Tomorrow, 18 January, Thursday

    Time Temperature Precipitation Wind Pressure Humidity
    00:00 -13°C° 0 mm 7 mps 744 mmHg 81%
    01:00 -13°C° 0 mm 7 mps 744 mmHg 83%
    02:00 -12°C° 0 mm 7 mps 744 mmHg 84%
    03:00 -12°C° 0 mm 7 mps 744 mmHg 85%
    04:00 -12°C° 0 mm 7 mps 744 mmHg 85%
    05:00 -12°C° 0 mm 7 mps 743 mmHg 85%
    06:00 -12°C° 0 mm 7 mps 743 mmHg 86%
    07:00 -12°C° 0 mm 7 mps 743 mmHg 85%
    08:00 -12°C° 0 mm 7 mps 743 mmHg 85%
    09:00 -11°C° 0 mm 8 mps 743 mmHg 85%
    10:00 -11°C° 0.1 mm 7 mps 743 mmHg 84%
    11:00 -11°C° 0.1 mm 7 mps 743 mmHg 83%
    12:00 -9°C° 0.1 mm 7 mps 743 mmHg 83%
    13:00 -9°C° 0 mm 7 mps 743 mmHg 82%
    14:00 -8°C° 0 mm 7 mps 743 mmHg 81%
    15:00 -8°C° 0 mm 7 mps 743 mmHg 81%
    16:00 -8°C° 0 mm 7 mps 743 mmHg 82%
    17:00 -8°C° 0 mm 7 mps 743 mmHg 83%
    18:00 -9°C° 0 mm 7 mps 743 mmHg 83%
    19:00 -11°C° 0 mm 7 mps 743 mmHg 80%
    20:00 -11°C° 0 mm 7 mps 743 mmHg 78%
    21:00 -12°C° 0 mm 7 mps 743 mmHg 75%
    22:00 -12°C° 0 mm 7 mps 743 mmHg 72%
    23:00 -13°C° 0 mm 7 mps 743 mmHg 69%

    Day after tomorrow, 19 January, Friday

    Time Temperature Precipitation Wind Pressure Humidity
    00:00 -13°C° 0 mm 7 mps 743 mmHg 66%
    01:00 -14°C° 0 mm 7 mps 743 mmHg 69%
    02:00 -14°C° 0 mm 7 mps 743 mmHg 72%
    03:00 -14°C° 0 mm 7 mps 743 mmHg 75%
    04:00 -14°C° 0 mm 7 mps 743 mmHg 78%
    05:00 -14°C° 0 mm 7 mps 743 mmHg 81%
    06:00 -14°C° 0 mm 7 mps 742 mmHg 84%
    07:00 -13°C° 0 mm 7 mps 742 mmHg 84%
    08:00 -13°C° 0 mm 8 mps 742 mmHg 84%
    09:00 -13°C° 0 mm 8 mps 742 mmHg 84%
    10:00 -12°C° 0.3 mm 8 mps 742 mmHg 86%
    11:00 -12°C° 0.3 mm 8 mps 742 mmHg 87%
    12:00 -11°C° 0.3 mm 8 mps 742 mmHg 88%
    13:00 -11°C° 0.5 mm 8 mps 742 mmHg 89%
    14:00 -11°C° 0.5 mm 8 mps 741 mmHg 89%
    15:00 -9°C° 0.5 mm 7 mps 741 mmHg 89%
    16:00 -9°C° 0.2 mm 7 mps 741 mmHg 89%
    17:00 -9°C° 0.2 mm 7 mps 741 mmHg 89%
    18:00 -9°C° 0.2 mm 7 mps 741 mmHg 89%
    19:00 -9°C° 0.1 mm 7 mps 741 mmHg 89%
    20:00 -9°C° 0.1 mm 7 mps 741 mmHg 89%
    21:00 -9°C° 0.1 mm 6 mps 741 mmHg 89%
    22:00 -8°C° 0.1 mm 7 mps 740 mmHg 89%
    23:00 -8°C° 0.1 mm 7 mps 740 mmHg 89%

    20 January, Saturday

    Time Temperature Precipitation Wind Pressure Humidity
    00:00 -7°C° 0.1 mm 7 mps 740 mmHg 89%
    01:00 -7°C° 0.4 mm 7 mps 740 mmHg 90%
    02:00 -7°C° 0.4 mm 7 mps 739 mmHg 91%
    03:00 -7°C° 0.4 mm 7 mps 739 mmHg 92%
    04:00 -6°C° 0.4 mm 7 mps 739 mmHg 92%
    05:00 -5°C° 0.4 mm 6 mps 739 mmHg 92%
    06:00 -4°C° 0.4 mm 6 mps 738 mmHg 92%
    07:00 -4°C° 0.2 mm 5 mps 739 mmHg 92%
    08:00 -4°C° 0.2 mm 5 mps 739 mmHg 92%
    09:00 -4°C° 0.2 mm 5 mps 739 mmHg 92%
    10:00 -4°C° 0 mm 5 mps 740 mmHg 91%
    11:00 -4°C° 0 mm 5 mps 741 mmHg 89%
    12:00 -2°C° 0 mm 5 mps 741 mmHg 88%
    13:00 -4°C° 0 mm 5 mps 742 mmHg 86%
    14:00 -4°C° 0 mm 5 mps 743 mmHg 85%
    15:00 -4°C° 0 mm 5 mps 743 mmHg 84%
    16:00 -4°C° 0 mm 4 mps 744 mmHg 86%
    17:00 -5°C° 0 mm 4 mps 745 mmHg 87%
    18:00 -6°C° 0 mm 3 mps 746 mmHg 89%
    19:00 -7°C° 0 mm 3 mps 747 mmHg 90%
    20:00 -8°C° 0 mm 3 mps 747 mmHg 91%
    21:00 -8°C° 0 mm 2 mps 748 mmHg 92%
    22:00 -8°C° 0 mm 2 mps 749 mmHg 92%
    23:00 -8°C° 0 mm 2 mps 749 mmHg 92%

    21 January, Sunday

    Time Temperature Precipitation Wind Pressure Humidity
    00:00 -8°C° 0 mm 2 mps 750 mmHg 92%
    01:00 -8°C° 0 mm 2 mps 750 mmHg 92%
    02:00 -7°C° 0 mm 2 mps 750 mmHg 91%
    03:00 -7°C° 0 mm 2 mps 750 mmHg 91%
    04:00 -7°C° 0.1 mm 3 mps 750 mmHg 91%
    05:00 -7°C° 0.1 mm 3 mps 750 mmHg 92%
    06:00 -7°C° 0.1 mm 4 mps 749 mmHg 92%
    07:00 -7°C° 0.5 mm 5 mps 749 mmHg 93%
    08:00 -6°C° 0.5 mm 5 mps 748 mmHg 93%
    09:00 -5°C° 0.5 mm 6 mps 748 mmHg 94%
    10:00 -4°C° 0.4 mm 6 mps 748 mmHg 92%
    11:00 -3°C° 0.4 mm 7 mps 747 mmHg 89%
    12:00 -2°C° 0.4 mm 7 mps 747 mmHg 87%
    13:00 -2°C° 0.6 mm 7 mps 746 mmHg 86%
    14:00 -2°C° 0.6 mm 7 mps 746 mmHg 85%
    15:00 -2°C° 0.6 mm 7 mps 746 mmHg 84%
    16:00 -2°C° 0.3 mm 8 mps 746 mmHg 83%
    17:00 -2°C° 0.3 mm 8 mps 746 mmHg 83%
    18:00 -2°C° 0.3 mm 8 mps 745 mmHg 82%
    19:00 -2°C° 0 mm 8 mps 745 mmHg 82%
    20:00 -4°C° 0 mm 8 mps 745 mmHg 82%
    21:00 -4°C° 0 mm 8 mps 745 mmHg 82%
    22:00 -4°C° 0 mm 8 mps 745 mmHg 82%
    23:00 -3°C° 0 mm 7 mps 745 mmHg 83%

    22 January, Monday

    Time Temperature Precipitation Wind Pressure Humidity
    00:00 -3°C° 0 mm 7 mps 745 mmHg 84%
    01:00 -3°C° 0 mm 7 mps 745 mmHg 84%
    02:00 -4°C° 0 mm 7 mps 745 mmHg 85%
    03:00 -4°C° 0 mm 7 mps 745 mmHg 86%
    04:00 -4°C° 0 mm 7 mps 744 mmHg 87%
    05:00 -4°C° 0 mm 7 mps 744 mmHg 88%
    06:00 -5°C° 0 mm 6 mps 744 mmHg 89%
    07:00 -5°C° 0 mm 6 mps 744 mmHg 89%
    08:00 -5°C° 0 mm 6 mps 744 mmHg 90%
    09:00 -5°C° 0 mm 6 mps 744 mmHg 91%
    10:00 -5°C° 0 mm 6 mps 744 mmHg 91%
    11:00 -5°C° 0 mm 6 mps 744 mmHg 90%
    12:00 -5°C° 0 mm 6 mps 744 mmHg 90%
    13:00 -4°C° 0 mm 6 mps 743 mmHg 90%
    14:00 -4°C° 0 mm 5 mps 743 mmHg 90%
    15:00 -4°C° 0 mm 5 mps 743 mmHg 90%
    16:00 -4°C° 0 mm 5 mps 743 mmHg 90%
    17:00 -3°C° 0 mm 4 mps 743 mmHg 91%
    18:00 -3°C° 0 mm 4 mps 743 mmHg 92%
    19:00 -2°C° 0 mm 4 mps 743 mmHg 92%
    20:00 -2°C° 0 mm 4 mps 743 mmHg 93%
    21:00 -2°C° 0 mm 4 mps 744 mmHg 93%
    22:00 -2°C° 0.1 mm 4 mps 744 mmHg 94%
    23:00 -2°C° 0.1 mm 4 mps 744 mmHg 94%
    Show more